TIMESTAMP,CO2_1_1_1,H2O_1_1_1,TAU_1_1_1,TAU_SSITC_TEST_1_1_1,H_1_1_1,H_SSITC_TEST_1_1_1,LE_1_1_1,LE_SSITC_TEST_1_1_1,FC_1_1_1,FC_SSITC_TEST_1_1_1,WD_0_0_1,WS_0_0_1,WS_MAX_0_0_1,U_SIGMA_0_0_1,V_SIGMA_0_0_1,W_SIGMA_0_0_1,USTAR_0_0_1,MO_LENGTH_0_0_1,ZL_0_0_1,FETCH_MAX_0_0_1,FETCH_70_0_0_1,FETCH_80_0_0_1,FETCH_90_0_0_1,PA_0_0_1,RH_0_0_1,TA_0_0_1,VPD_0_0_1,T_SONIC_0_0_1,T_SONIC_SIGMA_0_0_1
[yyyymmddHHMMSS],[mmolCO2 mol-1],[mmolH2O mol-1],[kg m-1 s-2],[#],[W m-2],[#],[W m-2],[#],[umolCO2 m-2 s-1],[#],[Decimal degrees],[m s-1],[m s-1],[m s-1],[m s-1],[m s-1],[m s-1],[m],[#],[m],[m],[m],[m],[kPa],[%],[deg C],[hPa],[deg C],[deg C]
20220217003000,421.11916406210315,2.6536547891406177,0.49595438621060201,0,-9.9257451586453609,0,1.7183336363180899,0,0.35077457895551861,0,281.72507210246300,3.1716758423281259,7.9395713019814842,1.2793858411776389,0.99215324173686936,0.72141264462177612,0.63767690228369189,2164.4945348616593,8.7780309416278374E-003,113.44580698909718,207.41511686045948,248.22292032195134,310.74564103982738,93.252215190538195,68.848275862068959,-7.0527586206896444,1.1199769412739562,-7.5425346849228845,7.6920637254343519E-002
20220217010000,421.24503678971894,2.6299641201490651,0.33135929782119394,0,-11.778763661282696,0,2.0588038681233214,0,0.26349558630405318,0,280.33996700797400,3.1698916282458445,8.4378132161676973,1.1937204976952622,0.86777230386945359,0.67144628339212098,0.52080372401169184,994.28744354104765,1.9109162167766643E-002,102.18452846615595,186.82590811995030,223.58289601684868,279.89925450148911,93.334739572482633,69.342666666666673,-7.2503333333333444,1.0855340730740413,-7.7468777754041867,8.4889790551148661E-002
20220217013000,421.33149130730493,2.5508180051978262,0.65449164624106104,0,-6.3821836957311362,1,5.9687064185503615,0,0.52379311024618302,1,280.31994202738258,3.8744809814493180,12.168291459828692,1.6312164632030037,1.4764237376380802,0.86618660152974825,0.73130915101038174,5082.5921724189566,3.7382499629037393E-003,109.35698718674526,199.93945019956925,239.27645664077221,299.54573013699166,93.385551783203127,68.908333333333331,-7.5573333333333608,1.0750976175464524,-8.0851207699245151,9.8011946987283549E-002
20220217020000,420.94923202573216,2.4414593819450281,0.58142769947833728,0,8.4451553272884006,0,7.1930627185982994,0,0.56222412304744707,0,288.33636537348127,4.2284409123458708,11.978836746155324,1.8896603929330646,1.5504977216196796,0.90390154432652936,0.68852765577506314,-3207.0804554906163,-5.9243914406548297E-003,100.71522060405009,184.13954473631316,220.36800515341665,275.87459263330010,93.449055085069446,68.022999999999996,-7.9470000000000027,1.0728100477099380,-8.5105678681267136,0.12830183023630784
20220217023000,421.18906526158497,2.3525947576787760,0.99368924442210482,0,9.8579196507292330,1,4.8290592878398089,0,0.47944123217082862,1,288.45111213956108,3.9147839540335592,11.833318519724218,1.8649899511790966,1.3680299748708957,1.0207720496199602,0.89888446546503020,-6117.2447505075552,-3.1059734855996314E-003,113.10322381556956,206.78876555795179,247.47333778520445,309.80725265251988,93.534697666232631,68.073666666666668,-8.4213333333333367,1.0323007692287667,-8.9975659408569868,0.20426135025410194
20220217030000,421.33384830155109,2.2481206774577163,1.0012494979245687,0,17.600828597026300,0,8.3580368021819442,0,0.36790305579450927,0,290.38908786090985,5.2230624250061117,13.018813297661550,2.0867526703188117,1.4763665270947315,1.0641198710760209,0.90119513992557720,-3453.6979662792887,-5.5013496216256954E-003,109.62700011573136,200.43311994996265,239.86725324697954,300.28533738148758,93.577077944611347,67.759333333333331,-8.9376666666666438,1.0012452486289758,-9.5504899338968698,0.19263181611360713
20220217033000,421.34658033380572,2.2090370770323959,0.72753126831621662,0,13.470229358624740,0,2.9683903437928105,0,0.25746686542006136,0,289.61566436497827,4.0798385540712463,10.903775696958258,1.8272992570104039,1.2711728715641091,0.98482649196785454,0.76730167019624596,-2786.3527311431467,-6.8189500157810031E-003,102.55103232000403,187.49599405519348,224.38481773899889,280.90316533812785,93.624194368272569,69.171666666666667,-9.4176666666666620,0.92199673762444267,-9.9827608193290871,9.6010014905057575E-002
20220217040000,421.42632603924176,2.2165149626041449,0.79543190611467585,0,13.888948124651302,0,1.9480859429773614,0,0.28468545825816999,0,289.70966392853938,3.8849139114407798,10.530251993388735,1.6649207184617216,1.3032162766547304,0.99737233693348915,0.80164747038224793,-3082.6682541436044,-6.1634916356831226E-003,105.13704977191955,192.22405872525923,230.04310358450127,287.98666778007271,93.664610483940976,71.218666666666664,-9.7396666666666647,0.83922758151694954,-10.314678687201649,0.11025426378367517
20220217043000,421.79814459281840,2.2938814200413438,0.58495737411197402,0,2.6529829472091064,1,-3.9438725922466040,2,0.17149833282913921,0,297.17108104310807,3.6203625084711666,9.8327193191748314,1.4433846433165500,1.2082645062874369,0.87241023347069513,0.68682736526556476,-10151.368528176412,-1.8716688244804717E-003,103.40853158843186,189.06377620324423,226.26105255306786,283.25198868321985,93.684737338878577,76.277333333333331,-10.171333333333337,0.66853521926112824,-10.727239111148037,9.4674679660851122E-002
20220217050000,421.98807419696954,2.0986198766177520,0.63405193870593146,0,5.4182683215096796,1,-3.1002284978535313,2,0.23435044851701434,0,302.93989746105899,4.1815260430890042,10.744303221489021,1.7949996008828677,1.3997445323607343,0.94632175425269205,0.71464565033565830,-5599.5694241336032,-3.3931180347745731E-003,100.02220963488330,182.87249966016392,218.85167580509389,273.97632822338619,93.697037042961369,71.230999999999995,-10.428666666666686,0.79438647894186409,-11.009487900032923,0.10804002886478896
20220217053000,422.32717776265753,2.1448591234488497,0.59720905599458562,0,30.039709796566374,1,-7.5984053095188910,2,-0.59465153088097977,2,297.02680826657485,3.6948587980622083,8.9926526381658274,1.5653483949402147,1.1835888148115701,0.81768649027380236,0.69303695272213117,-921.25333469803491,-2.0624077313356755E-002,109.69594032104035,200.55916463261823,240.01809653985714,300.47417528445408,93.715403936631944,74.917000000000002,-10.786999999999978,0.67317089918492057,-11.361557807498400,0.16381686087954780
20220217060000,422.74532877821207,2.1771722049191164,0.62087521082212627,0,-0.88598721574640615,2,4.3100918354043456,0,0.41541554659036201,1,291.33251757078972,3.5649651387690748,8.8571041583293795,1.5133180814815563,1.1035562227622289,0.86306282029196424,0.70600512992389886,33025.839859064559,5.7530709532539249E-004,106.62701678497469,194.94819362572989,233.30319730660298,292.06791826334978,93.730901875217015,78.695333333333338,-11.214666666666687,0.55260883065783162,-11.770824885050388,9.4468119064329184E-002
20220217063000,423.28989889242132,2.0825790192089446,0.41380566315502509,0,3.9227185951390111,1,9.9121308118219282,1,-0.23491104690747167,2,296.13757349634062,3.3047042055545539,8.0632713684872197,1.4369528740147017,1.1209822251089461,0.75577426412705662,0.57610430403796498,-4053.3869548428843,-4.6874379899257534E-003,100.77251939056934,184.24430519258101,220.49337666337541,276.03154288664388,93.746351727430550,76.452666666666673,-11.406666666666638,0.60148034076987333,-11.941005701276936,5.1378031307413620E-002
20220217070000,423.46733125772670,1.9850419601236229,0.42657262998263562,0,3.3186463591267050,0,1.6009387101386390,0,0.15393370412058627,0,288.89527662847559,3.7372236940960102,9.8126048486139776,1.4397407608475210,1.2040687077937253,0.82226315106174386,0.58457155425504859,-5007.1316711799964,-3.7945876497236992E-003,95.305152357746252,174.24821452930061,208.53060917660758,261.05557754684150,93.789368281310772,73.997000000000000,-11.592333333333329,0.65440879051277334,-12.153405861923659,8.0228553725754270E-002
20220217073000,423.44132792224985,1.9942177224812805,0.74083854342345346,0,3.7790539035937578,1,1.4158170510043337,0,0.35031783708856745,0,289.42808860888420,3.9855630840385743,8.7107216873487268,1.5907504299396340,1.0990345356234217,0.88578186996655128,0.76994293077470877,-10049.471539970289,-1.8906466797214466E-003,111.93355546045470,204.65023875821342,244.91406739328340,306.60334981590728,93.823770934244791,75.564333333333337,-11.791666666666686,0.60521442653760460,-12.334154560512957,5.4739120901971194E-002
20220217080000,423.44602926277150,2.0363523286781131,0.46223077639238958,0,-2.9310785954041645,2,4.9021392846105405,1,0.33153327116360765,0,286.30113697764494,3.3120422607054643,8.2841449913990850,1.3046705231699804,1.0141403068237635,0.77813002460460423,0.60787801914459305,6378.4636701605377,2.9787737271100259E-003,102.76998969124476,187.89631796269342,224.86390321212366,281.50292350012973,93.866466981553828,78.054000000000002,-11.929333333333318,0.53757626247504708,-12.462329072740317,5.9354839910876624E-002
20220217083000,423.54775695834491,2.1183379724753375,0.46011266299625347,0,-2.2379546130118118,2,4.6813216357964755,1,0.36989224914273039,1,285.37943927933622,2.8339601977529520,6.7143834331882220,1.1741243790264018,0.92118061639988624,0.65391738995223581,0.60614400861232787,8285.3260602869104,2.2932108961976148E-003,117.84122369295646,215.45134044137160,257.84022746816163,322.78536835570060,93.907093793402780,82.466666666666669,-12.117000000000019,0.42305436439105026,-12.635924817403122,5.8672953335000846E-002
20220217090000,423.21089929510464,2.0995006124770006,0.60838087906786020,0,5.0240318068103527,1,12.745996147963307,1,2.3017416726560009,1,288.46653751022313,3.0544450029731252,7.7581170846746224,1.4233565836747195,1.1289112660021188,0.78925357116441341,0.69671600639139875,-5605.3313880081305,-3.3896301012011532E-003,113.32514562908297,207.19450941138652,247.95890954933969,310.41513088117551,93.923636791461760,82.829999999999998,-12.280333333333317,0.40887449352782312,-12.799395255027150,5.0267048563793465E-002
20220217093000,422.16985322831744,1.9516246543042199,0.64084561410408736,0,11.643447070814419,1,11.559621631041995,1,1.4580205110941580,1,290.64208362458834,3.6960307710322096,10.412203477827378,1.6474532065593628,1.2743124237569861,0.91041656818953776,0.71473206356876995,-2611.4009121144900,-7.2757882222746944E-003,103.17569192050492,188.63807102987050,225.75159218715788,282.61420475986682,93.938646091579869,78.170000000000002,-12.466000000000008,0.51211877191301458,-13.025033457438155,0.11231083369720044
20220217100000,421.56774819986163,1.8658788135090834,0.47510256773126169,0,-2.8789548506439449,2,3.1139413331696235,1,0.18109685619122159,1,287.83526856237307,3.7542268906089058,8.8437091056530370,1.4544710540257835,1.0769134907572853,0.76909155464345769,0.61489300717830242,6727.3620076254565,2.8242868420732411E-003,104.69166556427984,191.40975434568639,229.06858921839310,286.76669143378678,93.987808086938102,76.535333333333327,-12.754000000000019,0.53780377364681842,-13.325203967625612,8.8892169281463873E-002
20220217103000,421.56616253944014,1.8651396504354123,0.75510343241673017,0,25.601561178743765,1,3.4591499078756875,0,0.35529549007206823,0,285.06361874647860,3.6025250703264202,11.087309822552019,1.5280646211564908,1.2698474302239500,0.89686676590665215,0.77466903237966245,-1512.7280187191609,-1.2560089959917219E-002,111.36930541315793,203.61860971343236,243.67947090841497,305.05778151940041,93.987416826605894,78.718333333333334,-13.105999999999995,0.47405343047288939,-13.674114366319372,0.13385878580530250
20220217110000,421.35012455579346,1.8141061805220962,0.78152639666562118,0,10.932827207450517,0,4.3682875361569629,1,0.78493158919511208,0,279.82569741061542,3.2251158952428147,9.7218314397540997,1.6496686819794921,1.0727577662409418,0.87710758365418096,0.78752876246427328,-3722.0017028605998,-5.1047800395677594E-003,114.87505871807136,210.02824485748351,251.35016713218619,314.66058295363518,93.998145557942721,78.759333333333331,-13.452333333333343,0.46000714791178637,-14.016776915232299,5.8605209495846286E-002
20220217113000,421.43800873398322,1.8070850524067303,0.87145769050985744,0,13.849872560862504,0,3.7104703006586162,1,0.44762283339511921,1,287.44225261281679,3.4495263071046200,9.9495373493002077,1.5675571016132235,1.2148784010176279,0.92419926843382061,0.83127454619409591,-3454.7923566156974,-5.4996069340075577E-003,115.03711710055792,210.32453926653906,251.70475586517770,315.10448597031080,93.975608177517373,80.171999999999997,-13.721000000000004,0.42011328024737993,-14.305789630466052,0.14614849973213156
20220217120000,421.44418515398974,1.7910428815597854,0.90343007152176025,0,14.408526312822888,0,-1.2027792988530897,2,0.29697101507159246,0,293.50534574991678,3.5369206663395247,10.323104476293805,1.6849192633886836,1.5409606892039343,0.91688010992910884,0.84552890061942654,-3495.6618832986887,-5.4353082861865951E-003,117.35662836631057,214.56534563051051,256.77991796579306,321.45798667963783,94.015441540798591,82.230000000000004,-14.134999999999991,0.36398106450989531,-14.725645453347056,9.7544473021080547E-002
20220217123000,421.59043366377620,1.7443143616331009,0.46368941177423806,0,6.0213910876567862,1,0.78531195748217553,1,0.25710095774746139,0,277.47127543843129,3.6570379686233712,9.4249374684697287,1.5376877522670671,1.2529455624687691,0.76894600288376669,0.60486265881830037,-3066.3513328447548,-6.1962893150841513E-003,103.33885474525673,188.93638471163072,226.10859747384745,283.06113301501370,94.194059690930743,81.996666666666670,-14.399666666666690,0.36084565116539724,-15.006074082023133,0.17292488504113071
20220217130000,421.83424325348301,1.6974813166168699,0.85452674588986766,0,22.899644682783144,1,1.8068613179833706,1,7.8118623748551899E-002,2,287.06160178024663,4.0314858518802899,10.594750854478459,1.7905451195036504,1.3510397988251459,0.94036398807857713,0.82074248578551068,-2013.0236860299622,-9.4385377240500095E-003,112.30100444873139,205.32205270062727,245.71805709867775,307.60984952217188,94.106815070095493,82.876666666666665,-14.871666666666670,0.33014033940551313,-15.497199718475258,0.14060373599387493
20220217133000,421.96850075009104,1.6461411961767058,0.56859862865496236,0,15.578937836740337,0,8.7829479774611169E-002,2,0.18616801290045681,0,286.02609532185187,4.5823098117483756,10.726471196547964,1.7496006976807426,1.3157534818277783,0.93804266034184547,0.66885251261242973,-1601.7519924958303,-1.1862011153421094E-002,95.530294890221498,174.65984688419320,209.02322797304365,261.67227782370651,94.133972366102441,83.200000000000003,-15.287333333333322,0.31297950855177364,-15.929969612969217,0.10636596433825460
20220217140000,422.07302915869894,1.6298884203779176,0.74233301100328297,0,26.546744088726424,0,2.5474548841853264,0,0.14363125677500493,1,296.00348994806109,3.0770397050207441,8.6296591531188369,1.5233296432416705,1.0004054178585744,0.79634642448043691,0.76398131644638723,-1401.0798724182498,-1.3560968488688792E-002,121.12658205514686,221.45802333876330,265.02869276812123,331.78447389692639,94.159842659939244,83.076666666666668,-15.386000000000024,0.31271371116923347,-16.006659571329749,5.9461671376221339E-002
20220217143000,422.17903305079852,1.6028418711869390,0.40369971649285286,0,24.726207097099081,0,1.8105429012830712,0,0.23968551691749687,0,301.67431703499597,3.4343395626870206,9.8886664096977555,1.5465270845872763,1.3100256160562325,0.82176120489572013,0.56336759199612774,-603.21401705222911,-3.1497941796592717E-002,92.574607736156082,169.25590809849305,202.55609343178463,253.57619279615227,94.168713381483713,81.689999999999998,-15.383666666666670,0.33840225103062976,-16.019822477601508,8.3447972697490769E-002
20220217150000,422.25339038738770,1.5963977767374820,0.57452120415228214,0,48.000156574236946,0,7.2401647344849120,1,-3.7861585340738219E-002,2,287.64553077483674,2.1707174564396428,7.7344967623586784,1.3019739316031822,1.0511112523709449,0.79097732734217963,0.67193607435659408,-527.54948093890653,-3.6015578986419883E-002,109.89705084251109,200.92685880677780,240.45813255592373,301.02504815999617,94.250385272818832,80.627666666666670,-15.263666666666666,0.36160844902310202,-15.897212276474590,0.10045809149391165
20220217153000,422.32606305656969,1.5923978841406929,0.39694708515784549,0,46.534932418151747,0,7.3959625035886125,0,0.23354422325389063,0,282.06216898665969,2.7790481791302613,7.1957722694677768,1.2035736086153916,0.87760642072047879,0.65640262788850623,0.55838730402733927,-312.43690678241501,-6.0812277895299478E-002,110.01884444662407,201.14953635917405,240.72462071350159,301.35865971064851,94.315145506510419,80.135666666666665,-15.211666666666645,0.37238969142504402,-15.864859914143835,0.13866689065215360
20220217160000,422.15217836172656,1.5958258125288791,0.49753916533407250,0,93.248417297316891,0,10.989247087167215,1,-0.34958138110897258,2,284.63755247768557,3.2807527282764739,7.4138800983670787,1.3549235487403510,0.98646758288908409,0.75591511634002251,0.62543154309557114,-219.08292128301105,-8.6725153602712018E-002,107.60198924522706,196.73075423458880,235.43646708307503,294.73851888049222,94.307590842992965,78.901666666666671,-14.998666666666679,0.40254143257725106,-15.662828492445328,0.22508541427594481
20220217163000,421.98185677067596,1.5722034675462380,0.67778462968777997,0,93.495282440190081,0,20.239397923814114,0,0.36617064850836828,0,302.69076345987276,3.8785616758776391,9.8212520015294551,1.7924904639252959,1.2859031123078302,0.83929855763628947,0.73057975810323073,-348.09832098946862,-5.4582279931694434E-002,112.06134392848283,204.88387683381035,245.19367249777582,306.95338222758312,94.240441987413192,76.148666666666671,-14.757333333333349,0.46420830055952594,-15.469377041286862,0.21792654670851913
20220217170000,421.53259804689822,1.3916199334408230,0.83331189066946676,0,160.52291497205306,0,16.478105427311782,0,-0.17798767326090723,2,299.08661550395607,4.2092051704873459,10.256500894670340,1.7228915745826918,1.3004089061580986,0.96072721354223078,0.81049358672812266,-276.72984171938941,-6.8659020949632346E-002,109.28850668768060,199.81424600654404,239.12661919931816,299.35815144064878,94.200108513454865,66.417666666666662,-14.583666666666659,0.66300343287788988,-15.357337421841066,0.30368999268123498
20220217173000,421.53089210483648,1.3200392655702149,0.65149202178855803,0,187.79781083577890,0,2.3502898967881025,2,-1.9922152110403670,1,308.70864680254817,3.0937065558350318,8.4726135208850337,1.4793839700022455,1.2333313150303258,0.80243262868192766,0.71708363025375699,-163.82126251267368,-0.11598006088208547,114.44158992134180,209.23572564927986,250.40172405219650,313.47324476383818,94.203478083936417,61.283000000000001,-14.246333333333325,0.78583604984959154,-15.044428324813282,0.33296332447177890
20220217180000,421.57689547404397,1.3805412132956925,0.67553688662344713,0,209.59077509989430,0,21.223951550377645,0,0.14538665808834600,2,305.85498510749318,3.9705101310960513,9.0757315455069083,1.6654528218500666,1.3641084424174479,0.86574259615306626,0.73039808325344435,-155.02383405022843,-0.12256179907048302,109.29280461920490,199.82210399612543,239.13602320588853,299.36992414095488,94.123477063368043,64.474666666666664,-14.329333333333352,0.71616463919240569,-15.169357938978408,0.40340961761034699
20220217183000,421.86142609027678,1.4733664480128297,0.71013030979088099,0,154.96641458933965,0,43.532667826195343,1,1.7237019988255369,1,325.89547429106244,3.5433926021900173,9.7359043761580413,1.5575711451097214,1.2120201868630487,0.87342957448506098,0.74908308642449006,-226.09236332228309,-8.4036451832371142E-002,110.73797518668611,202.46433670699346,242.29810092514700,303.32847021967422,94.073567882812497,68.752666666666670,-14.325666666666677,0.63011277316468806,-15.115942309061722,0.36829737965240456
20220217190000,421.92823028452818,1.4547102541252221,1.1155800223672283,0,178.46194262125198,0,39.786811933317836,1,0.28718249305634180,1,317.54666255960473,3.8951419415490847,10.167221986612851,1.9718060864352629,1.2944860744907756,0.91810655319886925,0.93888941843595553,-386.53259817236801,-4.9154974482972985E-002,127.47704437169513,233.06869382948838,278.92369993889849,349.17937403320650,94.060287734657209,68.045333333333332,-14.356666666666683,0.64273985143456425,-15.320512655967832,0.29960814262881164
20220217193000,421.91551549986320,1.4798715927157229,0.78457398289015101,0,148.00537793191518,0,5.5722716768996898,1,-0.53346797609017560,1,321.84735297127736,2.8424264001834660,9.7647146801946416,1.5267517789670886,1.3207064658777294,0.85655377497838014,0.78759033063214601,-275.07497131607721,-6.9072078455905350E-002,117.08236693516346,214.06390826317650,256.17982550598481,320.70674212951974,94.041226123914939,68.714333333333329,-14.269333333333350,0.63380676779324774,-15.117877811007986,0.32376656781555807
20220217200000,422.08916517091490,1.4186413673146689,0.67865622369259571,0,126.92384047577956,0,28.150829979517258,1,1.2212846904673269,1,315.92642089346896,4.2584994550557846,9.6395143159495529,1.5566012639544997,1.5039869241274455,0.89916947492690602,0.73180791577702098,-257.29781166916092,-7.3844390190269518E-002,106.19384312042010,194.15621401326968,232.35539998490353,290.88138848630371,94.030851047743056,68.695666666666668,-14.781666666666638,0.60804340521558886,-15.541115463256801,0.28176216140228938
20220217203000,421.88527098164201,1.3825702082379123,0.95560374736446341,0,174.53848690460282,0,22.887563902572438,1,0.74585232132814960,1,310.15411377262973,3.2952159391151667,8.9635896866631875,1.5608484500075259,1.7325232577304264,0.92487003667114431,0.86850543019644888,-312.71945362366989,-6.0757333065901344E-002,119.07164747886958,217.70094754555998,260.53243261420369,326.15568972986097,94.013521626868368,66.777000000000001,-14.752666666666642,0.64685350660237562,-15.507225860139556,0.32523888769302584
20220217210000,421.93976568308824,1.3147638737749228,0.79684845106665148,0,136.44528320820595,0,7.9294667077497705,0,-0.39285886153513944,2,307.79692797809480,4.3526698828322408,10.393360373860148,1.8484166034237304,1.6329486222933263,0.96801984929091323,0.79257899321824432,-303.92393025950435,-6.2515643252497158E-002,106.70420530372928,195.08931885602871,233.47208816338392,292.27934957472138,93.974934925717221,65.772999999999996,-15.183666666666682,0.64312806075560647,-16.006207865561066,0.26117854731945433
20220217213000,421.83503099614137,1.3110302928080930,0.91640303209458474,0,177.03630858406945,0,11.225354256545655,1,0.39618748178895541,1,307.47149920007666,3.1634072886296614,10.323478619053725,1.7351451879832562,1.3954327247625218,0.90221253688672287,0.85006543763632481,-288.99101404850234,-6.5745988893658694E-002,119.39048068222439,218.28387632792735,261.23004948460903,327.02902326937908,93.973110546657992,65.260666666666665,-15.123666666666679,0.65599840315213276,-15.896734443664513,0.38380426816660707
20220217220000,422.00864093052002,1.2727902145353400,0.63253155245847548,0,101.23520610580636,0,5.0288142039396204,0,0.20585986126775185,0,316.49556902900133,3.2890667128635593,9.6648578283635498,1.6585573131171281,1.1496337942513228,0.80115688205681324,0.70586241932131821,-289.34248608912105,-6.5666125486140203E-002,113.15060851923141,206.87539990882178,247.57701697647386,309.93704669696876,93.972231013762709,64.797666666666672,-15.395666666666671,0.64995745311162223,-16.178632015044514,0.25110159472832660
20220217223000,421.98117189561896,1.2560640504427696,0.98772876284945110,0,139.81715807781333,0,8.5529961096434199,0,-0.26443620818223657,1,312.32779574403617,3.0761412280219802,9.3781420802914823,1.7718350643557785,1.3468918088347690,0.81839129846699832,0.88152468119358407,-408.08769099330527,-4.6558620657616692E-002,132.88430164769341,242.95488468626937,290.75494542608874,363.99068943650605,93.980905188151041,65.491666666666674,-15.682666666666648,0.62216536452998483,-16.422420247395848,0.29597307237563197